TimeCST,TemperatureF,Dew PointF,Humidity,Sea Level PressureIn,VisibilityMPH,Wind Direction,Wind SpeedMPH,Gust SpeedMPH,PrecipitationIn,Events,Conditions,WindDirDegrees,DateUTC
12:15 AM,32.4,30.9,94,29.42,2.0,WNW,19.6,27.6,N/A,Snow,Light Snow,300,2012-12-21 06:15:00
12:35 AM,32.2,30.7,94,29.43,1.2,WNW,19.6,34.5,N/A,Snow,Light Snow,300,2012-12-21 06:35:00
12:55 AM,32.0,30.2,93,29.45,2.0,WNW,20.7,34.5,N/A,Snow,Light Snow,300,2012-12-21 06:55:00
1:15 AM,32.2,30.0,92,29.46,2.0,WNW,23.0,35.7,N/A,Snow,Light Snow,300,2012-12-21 07:15:00
1:35 AM,32.4,29.7,90,29.49,3.0,WNW,24.2,31.1,N/A,Snow,Light Snow,300,2012-12-21 07:35:00
1:55 AM,32.4,29.3,88,29.50,5.0,NW,19.6,27.6,N/A,Snow,Light Snow,310,2012-12-21 07:55:00
2:15 AM,32.5,28.4,85,29.52,5.0,NW,24.2,35.7,N/A,Snow,Light Snow,310,2012-12-21 08:15:00
2:35 AM,32.2,28.0,85,29.54,7.0,NW,20.7,29.9,N/A,Snow,Light Snow,310,2012-12-21 08:35:00
2:55 AM,31.6,28.2,87,29.56,2.5,NW,21.9,29.9,N/A,Snow,Light Snow,310,2012-12-21 08:55:00
3:15 AM,31.5,27.9,87,29.58,3.0,NW,20.7,29.9,N/A,Snow,Light Snow,310,2012-12-21 09:15:00
3:35 AM,31.5,26.6,82,29.59,7.0,NW,23.0,34.5,N/A,Snow,Light Snow,310,2012-12-21 09:35:00
3:55 AM,32.0,26.6,80,29.61,10.0,WNW,21.9,34.5,N/A,,Overcast,300,2012-12-21 09:55:00
4:15 AM,30.9,25.5,80,29.61,10.0,NW,28.8,36.8,N/A,,Overcast,310,2012-12-21 10:15:00
4:35 AM,30.7,24.8,79,29.63,10.0,NW,25.3,40.3,N/A,,Overcast,310,2012-12-21 10:35:00
4:55 AM,30.4,24.1,77,29.65,10.0,WNW,19.6,29.9,N/A,,Overcast,300,2012-12-21 10:55:00
5:15 AM,30.0,23.7,77,29.66,10.0,WNW,21.9,32.2,N/A,,Overcast,300,2012-12-21 11:15:00
5:35 AM,29.7,23.5,78,29.67,10.0,NW,23.0,35.7,N/A,,Overcast,310,2012-12-21 11:35:00
5:55 AM,29.3,23.0,77,29.69,10.0,NW,17.3,28.8,N/A,,Overcast,310,2012-12-21 11:55:00
6:15 AM,30.2,23.0,75,29.71,10.0,NW,19.6,28.8,N/A,,Overcast,310,2012-12-21 12:15:00
6:35 AM,29.1,22.6,77,29.72,10.0,NW,23.0,35.7,N/A,,Overcast,310,2012-12-21 12:35:00
6:55 AM,29.1,22.5,76,29.74,10.0,NW,24.2,38.0,N/A,,Overcast,310,2012-12-21 12:55:00
7:15 AM,28.9,22.6,77,29.75,10.0,NW,17.3,27.6,N/A,,Overcast,310,2012-12-21 13:15:00
7:35 AM,28.6,22.1,77,29.76,10.0,NW,21.9,29.9,N/A,,Overcast,310,2012-12-21 13:35:00
7:55 AM,28.4,22.1,77,29.78,10.0,NW,20.7,29.9,N/A,,Overcast,310,2012-12-21 13:55:00
8:15 AM,28.4,21.9,77,29.79,10.0,NW,19.6,31.1,N/A,,Overcast,310,2012-12-21 14:15:00
8:35 AM,28.0,21.4,76,29.80,10.0,NW,19.6,28.8,N/A,,Overcast,310,2012-12-21 14:35:00
8:55 AM,27.5,21.4,78,29.82,10.0,NW,19.6,32.2,N/A,,Overcast,310,2012-12-21 14:55:00
9:15 AM,28.4,21.2,74,29.83,10.0,NW,18.4,34.5,N/A,,Overcast,320,2012-12-21 15:15:00
9:35 AM,28.4,21.9,77,29.85,10.0,WNW,16.1,32.2,N/A,,Overcast,300,2012-12-21 15:35:00
9:55 AM,28.2,21.9,77,29.86,10.0,NW,12.7,27.6,N/A,,Overcast,310,2012-12-21 15:55:00
10:15 AM,28.4,21.9,77,29.86,10.0,NW,18.4,29.9,N/A,,Overcast,320,2012-12-21 16:15:00
10:35 AM,28.8,21.7,75,29.87,10.0,NW,17.3,33.4,N/A,,Overcast,310,2012-12-21 16:35:00
10:55 AM,29.3,21.7,73,29.87,10.0,NNW,23.0,27.6,N/A,,Overcast,330,2012-12-21 16:55:00
11:15 AM,29.7,21.6,72,29.88,10.0,NW,21.9,32.2,N/A,,Overcast,320,2012-12-21 17:15:00
11:35 AM,30.2,22.5,73,29.89,10.0,NW,17.3,26.5,N/A,,Overcast,320,2012-12-21 17:35:00
11:55 AM,29.7,21.4,71,29.90,10.0,NW,18.4,28.8,N/A,,Overcast,310,2012-12-21 17:55:00
12:15 PM,29.7,21.6,72,29.90,10.0,NW,20.7,28.8,N/A,,Mostly Cloudy,320,2012-12-21 18:15:00
12:35 PM,30.0,21.7,71,29.91,10.0,NW,17.3,25.3,N/A,,Overcast,310,2012-12-21 18:35:00
12:55 PM,29.1,21.0,72,29.92,10.0,NW,19.6,26.5,N/A,,Overcast,310,2012-12-21 18:55:00
1:15 PM,28.6,20.8,73,29.94,10.0,WNW,13.8,27.6,N/A,,Overcast,300,2012-12-21 19:15:00
1:35 PM,29.1,20.7,71,29.94,10.0,NW,17.3,29.9,N/A,,Overcast,310,2012-12-21 19:35:00
1:55 PM,28.6,20.3,71,29.96,10.0,NW,16.1,24.2,N/A,,Overcast,320,2012-12-21 19:55:00
2:15 PM,28.2,19.8,71,29.97,10.0,NW,19.6,25.3,N/A,,Overcast,320,2012-12-21 20:15:00
2:35 PM,28.0,19.4,70,29.98,10.0,NNW,18.4,23.0,N/A,,Overcast,330,2012-12-21 20:35:00
2:55 PM,27.5,19.2,71,29.99,10.0,NNW,13.8,23.0,N/A,,Overcast,330,2012-12-21 20:55:00
3:15 PM,27.1,18.5,70,30.00,10.0,NNW,13.8,21.9,N/A,,Mostly Cloudy,330,2012-12-21 21:15:00
3:35 PM,26.4,17.6,69,30.02,10.0,NNW,15.0,21.9,N/A,,Mostly Cloudy,330,2012-12-21 21:35:00
3:55 PM,26.6,17.8,69,30.04,10.0,NW,17.3,23.0,N/A,,Overcast,320,2012-12-21 21:55:00
4:15 PM,26.4,17.8,70,30.05,10.0,NW,19.6,27.6,N/A,,Overcast,320,2012-12-21 22:15:00
4:35 PM,25.7,17.6,71,30.07,10.0,NNW,12.7,26.5,N/A,,Overcast,330,2012-12-21 22:35:00
4:55 PM,25.7,17.8,72,30.08,10.0,NW,15.0,20.7,N/A,,Overcast,320,2012-12-21 22:55:00
5:15 PM,25.7,17.8,72,30.09,10.0,NW,11.5,18.4,N/A,,Overcast,310,2012-12-21 23:15:00
5:35 PM,25.2,17.2,72,30.10,10.0,NW,16.1,23.0,N/A,,Overcast,310,2012-12-21 23:35:00
5:55 PM,24.8,17.2,73,30.11,10.0,NW,11.5,21.9,N/A,,Overcast,310,2012-12-21 23:55:00
6:15 PM,24.8,17.2,73,30.11,10.0,NW,13.8,20.7,N/A,,Overcast,320,2012-12-22 00:15:00
6:35 PM,24.8,17.2,73,30.12,10.0,NW,16.1,20.7,N/A,,Overcast,310,2012-12-22 00:35:00
6:55 PM,24.8,17.4,74,30.12,10.0,NW,13.8,18.4,N/A,,Overcast,310,2012-12-22 00:55:00
7:15 PM,24.6,17.1,73,30.13,10.0,NW,16.1,21.9,N/A,,Overcast,310,2012-12-22 01:15:00
7:35 PM,23.9,16.3,73,30.13,10.0,NW,11.5,23.0,N/A,,Overcast,310,2012-12-22 01:35:00
7:55 PM,23.0,15.8,74,30.13,10.0,NW,13.8,20.7,N/A,,Overcast,310,2012-12-22 01:55:00
8:15 PM,22.8,15.6,74,30.13,10.0,NW,13.8,18.4,N/A,,Mostly Cloudy,310,2012-12-22 02:15:00
8:35 PM,22.5,15.4,74,30.15,10.0,NW,11.5,17.3,N/A,,Mostly Cloudy,310,2012-12-22 02:35:00
8:55 PM,22.1,15.3,75,30.15,10.0,NW,10.4,-,N/A,,Scattered Clouds,310,2012-12-22 02:55:00
9:15 PM,22.1,14.9,74,30.15,10.0,NW,11.5,17.3,N/A,,Clear,310,2012-12-22 03:15:00
9:35 PM,21.9,14.9,74,30.16,10.0,NW,12.7,19.6,N/A,,Clear,310,2012-12-22 03:35:00
9:55 PM,21.7,14.7,74,30.16,10.0,NW,10.4,16.1,N/A,,Clear,310,2012-12-22 03:55:00
10:15 PM,21.2,14.4,75,30.16,10.0,NW,9.2,-,N/A,,Clear,310,2012-12-22 04:15:00
10:35 PM,21.2,14.2,74,30.17,10.0,NW,9.2,-,N/A,,Clear,310,2012-12-22 04:35:00
10:55 PM,21.0,14.0,74,30.16,10.0,NW,6.9,-,N/A,,Clear,310,2012-12-22 04:55:00
11:15 PM,20.7,14.0,75,30.16,10.0,NW,8.1,-,N/A,,Clear,320,2012-12-22 05:15:00
11:35 PM,20.5,14.0,76,30.17,10.0,WNW,5.8,-,N/A,,Clear,300,2012-12-22 05:35:00
11:55 PM,20.3,14.0,77,30.17,10.0,WNW,5.8,-,N/A,,Clear,300,2012-12-22 05:55:00